DW5499 Weather Reports


time (UTC)temp
C
wind
direction
speed
KPH
gust
KPH
rain 1hr
cm
rain 24hr
cm
rain mn
cm
humidity
%
barometer
mb
20260504081545 17 71 0.0 3.2 0.00 0.00 0.00 57 1005.1
20260504050017 20 132 9.7 17.7 0.00 0.00 0.00 47 1006.3
20260504044515 20 154 8.0 17.7 0.00 0.00 0.00 47 1006.7
20260504043013 20 103 12.9 25.7 0.00 0.00 0.00 46 1007.1
20260504041512 20 41 9.7 17.7 0.00 0.00 0.00 52 1008.2
20260504040014 19 340 8.0 16.1 0.00 0.00 0.00 59 1008.5
20260504034517 18 261 0.0 8.0 0.00 0.00 0.00 65 1007.7
20260504033009 19 253 3.2 4.8 0.00 0.00 0.00 64 1008.0
20260504031509 19 89 1.6 3.2 0.00 0.00 0.00 63 1007.7
20260504030008 19 322 0.0 4.8 0.00 0.00 0.00 60 1008.2
20260504024509 20 250 0.0 0.0 0.00 0.00 0.00 63 1007.9
20260504023007 20 250 0.0 1.6 0.00 0.00 0.00 62 1007.8
20260504021506 20 249 0.0 3.2 0.00 0.00 0.00 60 1007.6
20260504020005 21 10 0.0 0.0 0.00 0.00 0.00 57 1007.5
20260504014504 21 10 0.0 0.0 0.00 0.00 0.00 53 1007.5
20260504013003 22 10 0.0 1.6 0.00 0.00 0.00 49 1007.5
20260504011502 23 10 0.0 3.2 0.00 0.00 0.00 43 1007.5
20260504010105 23 358 0.0 3.2 0.00 0.00 0.00 43 1007.4
20260504004600 24 358 0.0 3.2 0.00 0.00 0.00 41 1007.6
20260504003058 25 358 1.6 4.8 0.00 0.00 0.00 40 1007.7
20260504001558 25 358 1.6 4.8 0.00 0.00 0.00 38 1007.8
20260504000135 25 345 3.2 8.0 0.00 0.00 0.00 38 1008.0
20260503234554 25 335 3.2 9.7 0.00 0.00 0.00 37 1008.1
20260503233053 26 287 1.6 8.0 0.00 0.00 0.00 36 1008.2
20260503231552 26 294 4.8 11.3 0.00 0.00 0.00 35 1008.3
20260503230054 26 256 3.2 11.3 0.00 0.00 0.00 34 1008.5
20260503224548 26 247 1.6 14.5 0.00 0.00 0.00 34 1008.7
20260503223048 27 277 6.4 16.1 0.00 0.00 0.00 33 1008.7
20260503221546 26 345 3.2 11.3 0.00 0.00 0.00 34 1008.8
20260503220046 26 232 3.2 14.5 0.00 0.00 0.00 35 1008.9
20260503214543 26 261 6.4 17.7 0.00 0.00 0.00 34 1009.1
20260503213042 26 296 4.8 11.3 0.00 0.00 0.00 36 1009.3
20260503211540 26 239 9.7 17.7 0.00 0.00 0.00 34 1009.5
20260503210038 26 245 8.0 19.3 0.00 0.00 0.00 35 1009.7
20260503204535 26 275 4.8 16.1 0.00 0.00 0.00 35 1009.9
20260503203036 26 247 9.7 24.1 0.00 0.00 0.00 36 1010.1
20260503201532 26 224 8.0 20.9 0.00 0.00 0.00 37 1010.2
20260503200030 26 335 9.7 20.9 0.00 0.00 0.00 36 1010.4
20260503194529 25 224 4.8 20.9 0.00 0.00 0.00 36 1010.5
20260503193025 25 234 6.4 22.5 0.00 0.00 0.00 37 1010.7
20260503191522 25 199 6.4 22.5 0.00 0.00 0.00 38 1010.8
20260503190024 25 245 14.5 22.5 0.00 0.00 0.00 38 1011.0
20260503184520 25 255 11.3 19.3 0.00 0.00 0.00 38 1011.2
20260503183015 24 245 9.7 22.5 0.00 0.00 0.00 42 1011.4
20260503181511 23 237 6.4 22.5 0.00 0.00 0.00 43 1011.7
20260503180007 23 232 11.3 27.4 0.00 0.00 0.00 44 1012.1
20260503174507 22 261 14.5 33.8 0.00 0.00 0.00 44 1012.4
20260503173005 22 213 11.3 27.4 0.00 0.00 0.00 44 1012.6
20260503171613 21 200 17.7 32.2 0.00 0.00 0.00 44 1012.7
20260503170106 21 269 8.0 29.0 0.00 0.00 0.00 44 1012.8